| time (UTC) | temp F | wind direction | speed MPH | gust MPH | rain 1hr in | rain 24hr in | rain mn in | humidity % | barometer mb |
| 20260903161548 | 62 | 188 | 0.0 | 0.0 | 0.00 | 0.00 | 0.00 | 79 | 1004.2 |
| 20260903160047 | 62 | 189 | 0.0 | 0.0 | 0.00 | 0.00 | 0.00 | 78 | 1004.3 |
| 20260903154545 | 62 | 188 | 0.0 | 0.0 | 0.00 | 0.00 | 0.00 | 77 | 1004.3 |
| 20260903153042 | 62 | 189 | 0.0 | 0.0 | 0.00 | 0.00 | 0.00 | 77 | 1004.6 |
| 20260903151541 | 62 | 219 | 0.0 | 0.0 | 0.00 | 0.00 | 0.00 | 77 | 1004.7 |
| 20260903150040 | 61 | 360 | 0.0 | 0.0 | 0.00 | 0.00 | 0.00 | 77 | 1004.8 |
| 20260903144541 | 62 | 240 | 0.0 | 0.0 | 0.00 | 0.00 | 0.00 | 76 | 1004.8 |
| 20260903143042 | 62 | 360 | 0.0 | 0.0 | 0.00 | 0.00 | 0.00 | 76 | 1005.1 |
| 20260903141540 | 62 | 175 | 0.0 | 0.0 | 0.00 | 0.00 | 0.00 | 77 | 1005.2 |
| 20260903140040 | 62 | 238 | 0.0 | 0.0 | 0.00 | 0.00 | 0.00 | 77 | 1005.3 |
| 20260903134539 | 62 | 360 | 0.0 | 0.0 | 0.00 | 0.00 | 0.00 | 76 | 1005.5 |
| 20260903133040 | 62 | 192 | 0.0 | 0.0 | 0.00 | 0.00 | 0.00 | 76 | 1005.6 |
| 20260903131539 | 61 | 244 | 0.0 | 0.0 | 0.00 | 0.00 | 0.00 | 76 | 1005.7 |
| 20260903130041 | 61 | 203 | 0.0 | 0.0 | 0.00 | 0.00 | 0.00 | 77 | 1005.8 |
| 20260903124532 | 61 | 360 | 0.0 | 0.0 | 0.00 | 0.00 | 0.00 | 77 | 1005.8 |
| 20260903123035 | 61 | 246 | 0.0 | 0.0 | 0.00 | 0.00 | 0.00 | 77 | 1006.0 |
| 20260903121535 | 61 | 252 | 0.0 | 0.0 | 0.00 | 0.00 | 0.00 | 76 | 1006.2 |
| 20260903120030 | 61 | 215 | 0.0 | 0.0 | 0.00 | 0.00 | 0.00 | 76 | 1006.4 |
| 20260903114528 | 61 | 186 | 0.0 | 0.0 | 0.00 | 0.00 | 0.00 | 76 | 1006.5 |
| 20260903113034 | 60 | 159 | 0.0 | 0.0 | 0.00 | 0.00 | 0.00 | 77 | 1006.6 |
| 20260903111528 | 61 | 360 | 0.0 | 0.0 | 0.00 | 0.00 | 0.00 | 76 | 1006.8 |
| 20260903110104 | 61 | 202 | 0.0 | 0.0 | 0.00 | 0.00 | 0.00 | 76 | 1006.8 |
| 20260903104525 | 60 | 261 | 0.0 | 0.0 | 0.00 | 0.00 | 0.00 | 76 | 1006.9 |
| 20260903103024 | 61 | 263 | 0.0 | 0.0 | 0.00 | 0.00 | 0.00 | 75 | 1007.0 |
| 20260903101521 | 61 | 360 | 0.0 | 0.0 | 0.00 | 0.00 | 0.00 | 74 | 1007.3 |
| 20260903100021 | 60 | 254 | 0.0 | 0.0 | 0.00 | 0.00 | 0.00 | 75 | 1007.5 |
| 20260903094542 | 59 | 219 | 0.0 | 0.0 | 0.00 | 0.00 | 0.00 | 76 | 1007.6 |
| 20260903093017 | 59 | 360 | 0.0 | 0.0 | 0.00 | 0.00 | 0.00 | 75 | 1007.6 |
| 20260903091520 | 59 | 241 | 0.0 | 0.0 | 0.00 | 0.00 | 0.00 | 76 | 1007.7 |
| 20260903090016 | 58 | 247 | 0.0 | 0.0 | 0.00 | 0.00 | 0.00 | 75 | 1007.7 |
| 20260903084515 | 58 | 241 | 0.0 | 0.0 | 0.00 | 0.00 | 0.00 | 74 | 1007.8 |
| 20260903083017 | 58 | 219 | 0.0 | 0.0 | 0.00 | 0.00 | 0.00 | 73 | 1007.8 |
| 20260903081523 | 59 | 226 | 0.0 | 0.0 | 0.00 | 0.00 | 0.00 | 73 | 1008.0 |
| 20260903080014 | 58 | 198 | 0.0 | 0.0 | 0.00 | 0.00 | 0.00 | 73 | 1008.0 |
| 20260903074514 | 58 | 206 | 0.0 | 0.0 | 0.00 | 0.00 | 0.00 | 71 | 1008.2 |
| 20260903073012 | 59 | 256 | 0.0 | 0.0 | 0.00 | 0.00 | 0.00 | 72 | 1008.1 |
| 20260903071509 | 57 | 219 | 0.0 | 0.0 | 0.00 | 0.00 | 0.00 | 73 | 1008.1 |
| 20260903070007 | 57 | 236 | 0.0 | 0.0 | 0.00 | 0.00 | 0.00 | 73 | 1008.2 |
| 20260903064504 | 56 | 227 | 0.0 | 0.0 | 0.00 | 0.00 | 0.00 | 74 | 1008.2 |
| 20260903063007 | 56 | 206 | 0.0 | 0.0 | 0.00 | 0.00 | 0.00 | 74 | 1008.2 |
| 20260903061506 | 56 | 208 | 0.0 | 0.0 | 0.00 | 0.00 | 0.00 | 73 | 1008.1 |
| 20260903060005 | 54 | 225 | 0.0 | 0.0 | 0.00 | 0.00 | 0.00 | 75 | 1008.3 |
| 20260903054510 | 53 | 245 | 0.0 | 0.0 | 0.00 | 0.00 | 0.00 | 75 | 1008.4 |
| 20260903053001 | 53 | 251 | 0.0 | 0.0 | 0.00 | 0.00 | 0.00 | 76 | 1008.6 |
| 20260903051602 | 52 | 216 | 0.0 | 0.0 | 0.00 | 0.00 | 0.00 | 76 | 1008.7 |
| 20260903051501 | 52 | 229 | 0.0 | 0.0 | 0.00 | 0.00 | 0.00 | 76 | 1008.7 |
| 20260903044606 | 52 | 257 | 0.0 | 0.0 | 0.00 | 0.00 | 0.00 | 75 | 1008.6 |
| 20260903043057 | 52 | 173 | 0.0 | 0.0 | 0.00 | 0.00 | 0.00 | 75 | 1008.7 |
| 20260903041604 | 52 | 203 | 0.0 | 0.0 | 0.00 | 0.00 | 0.00 | 75 | 1008.8 |
| 20260903040059 | 52 | 242 | 0.0 | 0.0 | 0.00 | 0.00 | 0.00 | 75 | 1008.8 |
| 20260903034554 | 51 | 205 | 0.0 | 0.0 | 0.00 | 0.00 | 0.00 | 75 | 1008.9 |
| 20260903033111 | 52 | 215 | 0.0 | 0.0 | 0.00 | 0.00 | 0.00 | 74 | 1008.8 |
| 20260903031556 | 52 | 280 | 0.0 | 0.0 | 0.00 | 0.00 | 0.00 | 73 | 1008.9 |
| 20260903030056 | 52 | 241 | 0.0 | 0.0 | 0.00 | 0.00 | 0.00 | 73 | 1008.9 |
| 20260903024554 | 52 | 203 | 0.0 | 0.0 | 0.00 | 0.00 | 0.00 | 72 | 1008.9 |
| 20260903023054 | 52 | 257 | 0.0 | 0.0 | 0.00 | 0.00 | 0.00 | 72 | 1008.9 |
| 20260903021604 | 53 | 234 | 0.0 | 0.0 | 0.00 | 0.00 | 0.00 | 72 | 1008.9 |
| 20260903020049 | 53 | 246 | 0.0 | 0.0 | 0.00 | 0.00 | 0.00 | 72 | 1008.9 |
| 20260903014550 | 53 | 232 | 0.0 | 0.0 | 0.00 | 0.00 | 0.00 | 72 | 1009.2 |
| 20260903013045 | 54 | 225 | 0.0 | 0.0 | 0.00 | 0.00 | 0.00 | 72 | 1009.2 |
| 20260903011546 | 54 | 272 | 0.0 | 0.0 | 0.00 | 0.00 | 0.00 | 73 | 1009.1 |
| 20260903010048 | 54 | 243 | 0.0 | 0.0 | 0.00 | 0.00 | 0.00 | 73 | 1009.2 |
| 20260903004555 | 54 | 280 | 0.0 | 0.0 | 0.00 | 0.00 | 0.00 | 72 | 1009.2 |
| 20260903003042 | 55 | 235 | 0.0 | 0.0 | 0.00 | 0.00 | 0.00 | 71 | 1009.3 |
| 20260903001542 | 55 | 209 | 0.0 | 0.0 | 0.00 | 0.00 | 0.00 | 71 | 1009.3 |
| 20260903000041 | 55 | 190 | 0.0 | 0.0 | 0.00 | 0.00 | 0.00 | 71 | 1009.3 |
| 20260902234540 | 55 | 221 | 0.0 | 0.0 | 0.00 | 0.00 | 0.00 | 72 | 1009.3 |
| 20260902233045 | 55 | 247 | 0.0 | 0.0 | 0.00 | 0.00 | 0.00 | 73 | 1009.4 |
| 20260902231549 | 56 | 242 | 0.0 | 0.0 | 0.00 | 0.00 | 0.00 | 74 | 1009.3 |
| 20260902230042 | 56 | 279 | 0.0 | 0.0 | 0.00 | 0.00 | 0.00 | 75 | 1009.1 |
| 20260902224541 | 56 | 259 | 0.0 | 0.0 | 0.00 | 0.00 | 0.00 | 76 | 1009.3 |
| 20260902223036 | 56 | 240 | 0.0 | 0.0 | 0.00 | 0.00 | 0.00 | 77 | 1009.3 |
| 20260902221534 | 56 | 230 | 0.0 | 0.0 | 0.00 | 0.00 | 0.00 | 77 | 1009.4 |
| 20260902220035 | 56 | 262 | 0.0 | 0.0 | 0.00 | 0.00 | 0.00 | 77 | 1009.4 |
| 20260902214531 | 56 | 239 | 0.0 | 0.0 | 0.00 | 0.00 | 0.02 | 76 | 1009.4 |
| 20260902213031 | 56 | 360 | 0.0 | 0.0 | 0.00 | 0.00 | 0.02 | 76 | 1009.4 |
| 20260902211532 | 57 | 225 | 0.0 | 0.0 | 0.00 | 0.00 | 0.02 | 76 | 1009.4 |
| 20260902210036 | 56 | 263 | 0.0 | 0.0 | 0.00 | 0.00 | 0.02 | 76 | 1009.3 |
| 20260902204540 | 57 | 227 | 0.0 | 0.0 | 0.00 | 0.00 | 0.02 | 75 | 1009.4 |
| 20260902203031 | 57 | 265 | 0.0 | 0.0 | 0.00 | 0.00 | 0.02 | 75 | 1009.5 |
| 20260902201532 | 57 | 360 | 0.0 | 0.0 | 0.00 | 0.00 | 0.02 | 76 | 1009.5 |
| 20260902200030 | 57 | 250 | 0.0 | 0.0 | 0.00 | 0.00 | 0.02 | 76 | 1009.7 |
| 20260902194529 | 57 | 283 | 0.0 | 0.0 | 0.00 | 0.00 | 0.02 | 76 | 1009.7 |
| 20260902193035 | 57 | 246 | 0.0 | 0.0 | 0.00 | 0.00 | 0.02 | 76 | 1009.6 |
| 20260902191534 | 57 | 229 | 0.0 | 0.0 | 0.00 | 0.00 | 0.02 | 76 | 1009.6 |
| 20260902190033 | 57 | 237 | 0.0 | 0.0 | 0.00 | 0.00 | 0.02 | 76 | 1009.6 |
| 20260902184534 | 58 | 180 | 0.0 | 0.0 | 0.00 | 0.00 | 0.02 | 75 | 1009.7 |
| 20260902183039 | 58 | 236 | 0.0 | 0.0 | 0.00 | 0.00 | 0.02 | 75 | 1009.6 |
| 20260902181527 | 58 | 202 | 0.0 | 0.0 | 0.00 | 0.00 | 0.02 | 74 | 1009.5 |
| 20260902180027 | 58 | 233 | 0.0 | 0.0 | 0.00 | 0.00 | 0.02 | 73 | 1009.6 |
| 20260902174526 | 59 | 265 | 0.0 | 0.0 | 0.00 | 0.00 | 0.02 | 75 | 1009.7 |
| 20260902173028 | 59 | 254 | 0.0 | 0.0 | 0.00 | 0.00 | 0.02 | 74 | 1009.6 |
| 20260902171527 | 60 | 266 | 0.0 | 0.0 | 0.00 | 0.00 | 0.02 | 73 | 1009.5 |
| 20260902170026 | 60 | 360 | 0.0 | 0.0 | 0.00 | 0.00 | 0.02 | 73 | 1009.6 |
| 20260902164526 | 61 | 317 | 0.0 | 0.0 | 0.00 | 0.00 | 0.02 | 71 | 1009.7 |
| 20260902163026 | 61 | 109 | 0.0 | 0.0 | 0.00 | 0.00 | 0.02 | 70 | 1009.6 |